This is the latest recevied weather packets stored in our database for station/object VK4TW-13. If no packets are shown the sender has not sent any weather packets the latest 10 day(s).
| Time | Temp. | Humidity | Pressure | Rain* | Wind** | Luminosity | Snow |
|---|---|---|---|---|---|---|---|
| 1778121269 | 28.89° C | 100% | 1014 hPa | 0 mm | - | - | - |
| 1778120668 | 28.89° C | 100% | 1014.2 hPa | 0 mm | - | - | - |
| 1778120067 | 28.33° C | 100% | 1014.3 hPa | 0 mm | - | - | - |
| 1778119464 | 28.33° C | 100% | 1014.4 hPa | 0 mm | - | - | - |
| 1778118865 | 28.33° C | 100% | 1014.5 hPa | 0 mm | - | - | - |
| 1778118264 | 28.33° C | 100% | 1014.8 hPa | 0 mm | - | - | - |
| 1778117662 | 28.33° C | 100% | 1014.8 hPa | 0 mm | - | - | - |
| 1778117062 | 28.89° C | 100% | 1015 hPa | 0 mm | - | - | - |
| 1778116461 | 28.33° C | 100% | 1015.2 hPa | 0 mm | - | - | - |
| 1778115859 | 28.33° C | 100% | 1015.4 hPa | 0 mm | - | - | - |
| 1778115258 | 27.78° C | 100% | 1015.5 hPa | 0 mm | - | - | - |
| 1778114658 | 27.22° C | 100% | 1015.7 hPa | 0 mm | - | - | - |
| 1778114057 | 27.22° C | 100% | 1015.7 hPa | 0 mm | - | - | - |
| 1778113455 | 26.67° C | 100% | 1015.8 hPa | 0 mm | - | - | - |
| 1778112857 | 26.11° C | 100% | 1015.8 hPa | 0 mm | - | - | - |
| 1778112253 | 25.56° C | 100% | 1016 hPa | 0 mm | - | - | - |
| 1778112058 | 25.56° C | 100% | 1016.1 hPa | 0 mm | - | - | - |
| 1778111521 | 25.56° C | 100% | 1016.2 hPa | 0 mm | - | - | - |
| 1778110919 | 25° C | 100% | 1016.1 hPa | 0 mm | - | - | - |
| 1778110317 | 24.44° C | 100% | 1016.1 hPa | 0 mm | - | - | - |
| 1778109719 | 24.44° C | 100% | 1016.2 hPa | 0 mm | - | - | - |
| 1778109115 | 24.44° C | 100% | 1016.2 hPa | 0 mm | - | - | - |
| 1778108514 | 24.44° C | 100% | 1016.4 hPa | 0 mm | - | - | - |
| 1778107916 | 23.89° C | 100% | 1016.2 hPa | 0 mm | - | - | - |
| 1778106711 | 23.33° C | 100% | 1016 hPa | 0 mm | - | - | - |
* Rain since midnight (hover to see other rain measurements)
** Current wind speed in m/s (hover to see current wind gust speed)